Detroit Lake Weather Center

Moon Phase Calendar



Detroit Lake Water Level
Online Cameras

 


      

Current Conditions in Mill City
8/2/2021 5:23:24 AM

59°F
Feels Like 56
Clouds
Humidity
43%
Pressure
30.09"
Wind
4.2 mph (E)
Dew Point
36°F
UV Index
0/10 (Low)
Visibility
6 mi

Hourly Forecast

Date & Time Mon, Aug 2
5:00 AM
Mon, Aug 2
6:00 AM
Mon, Aug 2
7:00 AM
Mon, Aug 2
8:00 AM
Mon, Aug 2
9:00 AM
Mon, Aug 2
10:00 AM
Mon, Aug 2
11:00 AM
Mon, Aug 2
12:00 PM
Mon, Aug 2
1:00 PM
Mon, Aug 2
2:00 PM
Mon, Aug 2
3:00 PM
Mon, Aug 2
4:00 PM
Mon, Aug 2
5:00 PM
Mon, Aug 2
6:00 PM
Mon, Aug 2
7:00 PM
Mon, Aug 2
8:00 PM
Mon, Aug 2
9:00 PM
Mon, Aug 2
10:00 PM
Mon, Aug 2
11:00 PM
Tue, Aug 3
12:00 AM
Tue, Aug 3
1:00 AM
Tue, Aug 3
2:00 AM
Tue, Aug 3
3:00 AM
Tue, Aug 3
4:00 AM
Tue, Aug 3
5:00 AM
Tue, Aug 3
6:00 AM
Tue, Aug 3
7:00 AM
Tue, Aug 3
8:00 AM
Tue, Aug 3
9:00 AM
Tue, Aug 3
10:00 AM
Tue, Aug 3
11:00 AM
Tue, Aug 3
12:00 PM
Tue, Aug 3
1:00 PM
Tue, Aug 3
2:00 PM
Tue, Aug 3
3:00 PM
Tue, Aug 3
4:00 PM
Tue, Aug 3
5:00 PM
Tue, Aug 3
6:00 PM
Tue, Aug 3
7:00 PM
Tue, Aug 3
8:00 PM
Tue, Aug 3
9:00 PM
Tue, Aug 3
10:00 PM
Tue, Aug 3
11:00 PM
Wed, Aug 4
12:00 AM
Wed, Aug 4
1:00 AM
Wed, Aug 4
2:00 AM
Wed, Aug 4
3:00 AM
Wed, Aug 4
4:00 AM
Condition
Clouds

Clouds

Clouds

Clouds

Clouds

Clear

Clouds

Clouds

Clouds

Clouds

Clouds

Clouds

Clouds

Clear

Clear

Clear

Clear

Clear

Clear

Clear

Clear

Clear

Clear

Clear

Clear

Clear

Clear

Clear

Clear

Clear

Clear

Clear

Clear

Clear

Clear

Clear

Clear

Clear

Clear

Clear

Clear

Clear

Clear

Clouds

Clouds

Clouds

Clouds

Clouds
Temperature 59°F60°F63°F71°F81°F93°F96°F98°F97°F95°F95°F93°F91°F91°F88°F79°F73°F71°F69°F68°F66°F65°F64°F64°F63°F63°F67°F74°F80°F84°F88°F90°F92°F93°F93°F93°F92°F89°F85°F75°F69°F67°F66°F65°F64°F65°F63°F63°F
Feels Like 56°F58°F61°F69°F80°F89°F92°F94°F94°F92°F92°F90°F88°F88°F86°F79°F73°F70°F69°F67°F66°F65°F64°F63°F63°F63°F66°F74°F80°F84°F86°F88°F89°F90°F90°F89°F88°F86°F83°F74°F68°F66°F65°F64°F63°F64°F62°F61°F
Cloudiness 20%19%16%18%14%10%15%39%44%39%34%31%30%2%1%1%1%1%1%0%0%0%0%0%0%0%0%0%0%0%0%0%0%0%0%0%0%0%0%0%0%0%1%100%100%99%81%74%
Visibility 6 mi6 mi6 mi6 mi6 mi6 mi6 mi6 mi6 mi6 mi6 mi6 mi6 mi6 mi6 mi6 mi6 mi6 mi6 mi6 mi6 mi6 mi6 mi6 mi6 mi6 mi6 mi6 mi6 mi6 mi6 mi6 mi6 mi6 mi6 mi6 mi6 mi6 mi6 mi6 mi6 mi6 mi6 mi6 mi6 mi6 mi6 mi6 mi
Precipitation 0%0%0%0%0%0%0%0%0%0%0%1%11%2%2%2%2%1%0%0%0%0%0%0%0%0%0%0%0%0%0%0%0%0%0%0%0%0%0%0%0%0%0%0%0%0%0%0%
Humidity 43%42%41%35%26%18%17%17%20%24%24%25%27%26%32%46%53%57%60%64%67%70%72%73%75%77%72%58%48%39%33%29%27%25%22%20%21%22%30%46%51%53%56%58%58%56%57%56%
Dew Point 36°F37°F39°F42°F43°F40°F41°F43°F46°F49°F49°F49°F49°F48°F52°F53°F51°F51°F51°F51°F51°F51°F51°F51°F51°F52°F53°F54°F55°F54°F52°F51°F50°F48°F46°F44°F43°F43°F46°F49°F47°F46°F46°F46°F45°F45°F44°F43°F
Pressure 30.09"30.09"30.09"30.06"30.06"30.03"30"30"29.97"29.97"29.97"30"30"30"30.03"30.03"30.06"30.06"30.09"30.09"30.09"30.09"30.09"30.09"30.09"30.09"30.09"30.06"30.06"30.03"30"30"29.97"29.97"29.97"29.94"29.94"29.94"29.97"30"30.03"30.03"30.03"30.03"30.03"30.03"30.03"30.03"
Wind Speed 4.2 mph4.7 mph4.5 mph3.1 mph2.1 mph1.6 mph1.5 mph4 mph7 mph8.8 mph8.9 mph8.7 mph5.2 mph4.2 mph3 mph1.7 mph1 mph1.9 mph2 mph1.9 mph2.1 mph2.2 mph2.6 mph2.5 mph2.4 mph2.6 mph2.2 mph1.2 mph2.4 mph3.7 mph4.9 mph5.9 mph7.1 mph7.9 mph7.6 mph7.4 mph7.2 mph6.4 mph4.6 mph2.9 mph3 mph3.5 mph3.6 mph3.9 mph4 mph3.8 mph3.6 mph3.3 mph
Wind
Direction
83°
E
77°
ENE
79°
E
74°
ENE
47°
NE
20°
NNE
278°
W
261°
W
272°
W
282°
WNW
278°
W
276°
W
288°
WNW
304°
NW
303°
WNW
299°
WNW
57°
ENE
93°
E
109°
ESE
117°
ESE
84°
E
80°
E
90°
E
87°
E
73°
ENE
70°
ENE
65°
ENE
353°
N
303°
WNW
290°
WNW
283°
WNW
280°
W
279°
W
281°
W
283°
WNW
286°
WNW
293°
WNW
302°
WNW
308°
NW
330°
NNW
38°
NE
62°
ENE
71°
ENE
75°
ENE
79°
E
81°
E
79°
E
79°
E

Daily Forecast

Date High Low Precip. Humidity
Today
Aug 2

Clouds
98 °F
59 °F
11%
20%
Tuesday
Aug 3

Clear
93 °F
63 °F
0%
27%
Wednesday
Aug 4

Clear
96 °F
62 °F
0%
18%
Thursday
Aug 5

Rain
79 °F
56 °F
30%
44%
Friday
Aug 6

Rain
61 °F
56 °F
83%
98%
Saturday
Aug 7

Rain
74 °F
53 °F
49%
36%
Sunday
Aug 8

Clear
78 °F
50 °F
0%
32%
Monday
Aug 9

Clear
82 °F
51 °F
0%
28%
Tuesday
Aug 10

Clouds
78 °F
57 °F
10%
43%
Wednesday
Aug 11

Rain
77 °F
56 °F
100%
61%
Thursday
Aug 12

Rain
69 °F
59 °F
76%
86%
Friday
Aug 13

Clouds
81 °F
59 °F
1%
42%
Saturday
Aug 14

Clouds
81 °F
57 °F
0%
34%
Sunday
Aug 15

Clouds
81 °F
53 °F
8%
30%
Monday
Aug 16

Rain
87 °F
56 °F
32%
30%
Tuesday
Aug 17

Rain
88 °F
58 °F
89%
36%

Temperature 8-14 Day Outlook



Precipitation 8-14 Day Outlook




Quick Links
Detroit Lake News
Detroit Lake Photos
Detroit Lake Videos




About Us
Contact Us
Site Map
Search Site
Advertise With Us
   
Detroit.LakesOnline.com
THE DETROIT LAKE WEBSITE

Copyright 2021, Lakes Online
Privacy    |    Legal